sat.trackr.live / text

‹ back to catalog

STARLINK-5097

NORAD 53995 · 2022-125AH

PAYLOAD ACTIVE UNKNOWN

§ Identity

Operator
Country
US
Launch date
2022-10-05
Launch site
AFWTR
Launch vehicle
Mass (kg)
RCS (m²)

Purposes: comms

External: N2YO · Heavens-Above · Gunter

§ Orbital elements

Epoch: 2026-09-20T13:42:28.687104Z

Period
93.85 min
Inclination
53.1614°
Eccentricity
0.0001181
Mean motion
15.34392605 rev/d
Perigee alt
461.9 km
Apogee alt
463.5 km
Semi-major
6,840.9 km
B*
2.1050e-5
RAAN
51.5540°
Arg perigee
87.1184°
Mean anomaly
272.9954°
Rev number
21,897

§ Raw data

STARLINK-50971 53995U 22125AH  26263.57116536  .00000335  00000+0  21050-4 0  99982 53995  53.1614  51.5540 0001181  87.1184 272.9954 15.34392605218976

JSON: /api/v1/satellites/53995 · /tle

For live sub-satellite position, see the globe view (requires WebGL).

§ Visibility from observer

Set your observer location to see the next 7 days of passes ≥ 10°. The values pass through the URL so the page stays shareable.

No JS? Fill the form by hand. The geolocation button needs JavaScript.